Weather Roundup
Issued by NWS

Home | Current Version | Previous Version | Graphics & Text | Print | Product List | Glossary Off
Versions: 1 2 3 4 5 6 7 8 9 10 11 12 13 14 15 16 17 18 19 20 21 22 23 24 25 26 27 28 29 30 31 32 33 34 35 36 37 38 39 40 41 42 43 44 45 46 47 48 49 50

000
NZUS93 KARX 050559
HRRWXR

CURRENT HOURLY OBSERVATIONS ACROSS
MUCH OF THE UPPER MISSISSIPPI VALLEY
NATIONAL WEATHER SERVICE LA CROSSE WI
1200 AM CST THU MAR 05 2015


...SOUTHEAST MINNESOTA...


CITY           SKY/WX    TMP DP  RH WIND       PRES   REMARKS
ROCHESTER      CLEAR     -5 -12  72 NW12      30.36S WCI -23
ROCHESTER/MAYO FAIR      -1 -11  65 W9        30.38R WCI -17
WINONA         CLEAR      3  -8  60 W5        30.43S WCI  -6
AUSTIN         CLEAR     -2  -9  71 NW7       30.39R WCI -16
ALBERT LEA     CLEAR     -2  -8  78 W5        30.40R WCI -12
DODGE CENTER   PTCLDY    -2  -9  71 NW8       30.36R WCI -17
PRESTON        CLEAR     -6 -13  72 NW8       30.37R WCI -22
OWATONNA       CLEAR     -2 -11  65 W8        30.40R WCI -17
FARIBAULT      CLEAR     -4 -11  71 W7        30.41S WCI -18
$$

...ELSEWHERE IN MINNESOTA...


CITY           SKY/WX    TMP DP  RH WIND       PRES   REMARKS
MINNEAPOLIS    CLEAR     -2 -12  62 W8        30.43F WCI -17
INTNL FALLS    CLEAR    -14 -19  79 SW3       30.30R
DULUTH         CLEAR    -10 -19  64 W8        30.30R WCI -26
RED WING       CLEAR     -2 -15  55 NW5       30.42R WCI -12
REDWOOD FALLS  CLEAR     -4 -11  72 W9        30.46F WCI -20
MANKATO        CLEAR     -2  -9  71 NW8       30.42S WCI -17
FAIRMONT       CLEAR      0  -9  65 NW10      30.40S WCI -17
$$

...SOUTHWEST WISCONSIN...


CITY           SKY/WX    TMP DP  RH WIND       PRES   REMARKS
LA CROSSE      CLEAR      3  -7  63 NW8       30.41R WCI -10
PRAIRIE DU CHI CLEAR      4  -8  58 NW7       30.43R WCI  -8
BOSCOBEL       CLEAR      4  -6  63 CALM      30.43R
LONE ROCK      NOT AVBL
PLATTEVILLE    CLEAR      2  -4  75 W8        30.38R WCI -11
FORT MC COY    CLEAR      3  -9  56 NW5       30.38F WCI  -6
VIROQUA        FAIR       1  -8  67 W5        30.34R WCI  -9
WIS DELLS      NOT AVBL
$$

...ELSEWHERE IN WISCONSIN...


CITY           SKY/WX    TMP DP  RH WIND       PRES   REMARKS
MILWAUKEE      FAIR       9  -9  44 NW8       30.35S WCI  -3
MADISON        CLEAR      4  -6  63 NW3       30.37R
GREEN BAY      CLEAR     -1 -11  62 NW3       30.35R
EAU CLAIRE     CLEAR     -2 -14  56 NW9       30.37F WCI -18
BLACK RVR FLS  FAIR      -4 -13  66 CALM      30.37F
MEDFORD        CLEAR     -9 -16  69 NW3       30.27F
WAUSAU         CLEAR     -3 -13  62 NW5       30.29S WCI -13
WIS RAPIDS     CLEAR      0 -13  54 NW6       30.34F WCI -12
MARSHFIELD     CLEAR     -8 -17  64 NW7       30.30F WCI -23
RICE LAKE      CLEAR    -11 -19  68 CALM      30.37F
$$

...NORTHEAST IOWA...


CITY           SKY/WX    TMP DP  RH WIND       PRES   REMARKS
DECORAH        CLEAR      1  -9  60 NW5       30.39R WCI  -8
MASON CITY     CLEAR     -4 -11  72 NW8       30.43R WCI -19
CHARLES CITY   CLEAR      0 -11  60 NW9       30.42R WCI -16
OELWEIN        CLEAR     -2  -9  71 NW10      30.42R WCI -19
$$

...ELSEWHERE IN IOWA...


CITY           SKY/WX    TMP DP  RH WIND       PRES   REMARKS
DES MOINES     FLURRIES  11   2  67 N7        30.46R WCI   0
IOWA CITY      PTCLDY    10   1  67 NW10      30.47R WCI  -4
FORT DODGE     CLEAR      1  -8  66 CALM      30.46S
$$

...NORTHERN ILLINOIS...


CITY           SKY/WX    TMP DP  RH WIND       PRES   REMARKS
CHICAGO-OHARE  MOCLDY    10  -2  58 NW12      30.34S WCI  -5
CHICAGO-MIDWAY PTCLDY    14  -1  51 NW12      30.35S WCI   0
MOLINE         MOCLDY    12   0  58 NW8       30.43R WCI   0
ROCKFORD       MOCLDY     6  -5  60 NW9       30.39R WCI  -8
PEORIA         PTCLDY    14   0  53 N9        30.41R WCI   2
$$

NOTE: "FAIR" INDICATES FEW OR NO CLOUDS BELOW 12,000 FEET WITH NO
SIGNIFICANT WEATHER AND/OR OBSTRUCTIONS TO VISIBILITY. WIND
SPEEDS ARE IN MILES-PER-HOUR.



USA.gov is the U.S. government's official web portal to all federal, state and local government web resources and services.